| time (UTC) | temp F | wind direction | speed MPH | gust MPH | rain 1hr in | rain 24hr in | rain mn in | humidity % | barometer mb |
| 20260506044116 | 58 | 0.0 | 0.0 | 0.00 | 0.00 | 0.00 | 62 | 1018.1 | |
| 20260506043116 | 58 | 0.0 | 0.0 | 0.00 | 0.00 | 0.00 | 62 | 1018.0 | |
| 20260506042116 | 59 | 338 | 1.0 | 1.0 | 0.00 | 0.00 | 0.00 | 61 | 1017.9 |
| 20260506041116 | 59 | 0.0 | 1.0 | 0.00 | 0.00 | 0.00 | 60 | 1017.7 | |
| 20260506040116 | 59 | 0.0 | 0.0 | 0.00 | 0.00 | 0.00 | 60 | 1017.6 | |
| 20260506035116 | 60 | 0.0 | 0.0 | 0.00 | 0.00 | 0.00 | 60 | 1017.5 | |
| 20260506034116 | 60 | 338 | 1.0 | 2.0 | 0.00 | 0.00 | 0.00 | 60 | 1017.5 |
| 20260506033116 | 60 | 0.0 | 1.0 | 0.00 | 0.00 | 0.00 | 60 | 1017.4 | |
| 20260506032115 | 60 | 0.0 | 0.0 | 0.00 | 0.00 | 0.00 | 60 | 1017.4 | |
| 20260506031116 | 60 | 0.0 | 1.0 | 0.00 | 0.00 | 0.00 | 59 | 1017.2 | |
| 20260506030116 | 60 | 0.0 | 0.0 | 0.00 | 0.00 | 0.00 | 59 | 1017.3 | |
| 20260506025115 | 60 | 0.0 | 1.0 | 0.00 | 0.00 | 0.00 | 58 | 1017.1 | |
| 20260506024115 | 60 | 0.0 | 0.0 | 0.00 | 0.00 | 0.00 | 58 | 1017.0 | |
| 20260506023136 | 61 | 338 | 1.0 | 1.0 | 0.00 | 0.00 | 0.00 | 58 | 1017.1 |
| 20260506022115 | 61 | 0.0 | 0.0 | 0.00 | 0.00 | 0.00 | 58 | 1017.0 | |
| 20260506021116 | 61 | 0.0 | 1.0 | 0.00 | 0.00 | 0.00 | 58 | 1016.9 | |
| 20260506020116 | 61 | 0.0 | 0.0 | 0.00 | 0.00 | 0.00 | 58 | 1017.0 | |
| 20260506015116 | 61 | 338 | 1.0 | 2.0 | 0.00 | 0.00 | 0.00 | 58 | 1017.0 |
| 20260506014115 | 61 | 338 | 1.0 | 3.0 | 0.00 | 0.00 | 0.00 | 58 | 1017.1 |
| 20260506013115 | 61 | 0 | 1.0 | 3.0 | 0.00 | 0.00 | 0.00 | 58 | 1017.0 |
| 20260506012116 | 61 | 0.0 | 1.0 | 0.00 | 0.00 | 0.00 | 58 | 1017.1 | |
| 20260506011115 | 61 | 0.0 | 1.0 | 0.00 | 0.00 | 0.00 | 58 | 1017.0 | |
| 20260506010116 | 61 | 315 | 3.0 | 4.0 | 0.00 | 0.00 | 0.00 | 58 | 1017.0 |
| 20260506005118 | 61 | 315 | 2.0 | 3.0 | 0.00 | 0.00 | 0.00 | 57 | 1017.1 |
| 20260506004139 | 61 | 270 | 3.0 | 6.0 | 0.00 | 0.00 | 0.00 | 57 | 1017.1 |
| 20260506003116 | 61 | 338 | 3.0 | 4.0 | 0.00 | 0.00 | 0.00 | 57 | 1017.1 |
| 20260506002117 | 61 | 315 | 1.0 | 2.0 | 0.00 | 0.00 | 0.00 | 57 | 1017.2 |
| 20260506001118 | 61 | 315 | 2.0 | 3.0 | 0.00 | 0.00 | 0.00 | 57 | 1017.2 |
| 20260506000117 | 61 | 315 | 3.0 | 4.0 | 0.00 | 0.00 | 0.00 | 57 | 1017.3 |
| 20260505235117 | 61 | 315 | 2.0 | 4.0 | 0.00 | 0.00 | 0.00 | 56 | 1017.4 |
| 20260505234117 | 61 | 293 | 3.0 | 5.0 | 0.00 | 0.00 | 0.00 | 56 | 1017.4 |
| 20260505233117 | 61 | 315 | 1.0 | 2.0 | 0.00 | 0.00 | 0.00 | 57 | 1017.5 |
| 20260505232117 | 61 | 248 | 3.0 | 5.0 | 0.00 | 0.00 | 0.00 | 56 | 1017.5 |
| 20260505231117 | 62 | 270 | 5.0 | 7.0 | 0.00 | 0.00 | 0.00 | 56 | 1017.4 |
| 20260505230117 | 62 | 270 | 4.0 | 6.0 | 0.00 | 0.00 | 0.00 | 56 | 1017.4 |
| 20260505225117 | 62 | 270 | 4.0 | 7.0 | 0.00 | 0.00 | 0.00 | 55 | 1017.4 |
| 20260505224117 | 62 | 315 | 1.0 | 3.0 | 0.00 | 0.00 | 0.00 | 56 | 1017.5 |
| 20260505223117 | 62 | 315 | 2.0 | 3.0 | 0.00 | 0.00 | 0.00 | 55 | 1017.7 |
| 20260505222117 | 62 | 293 | 2.0 | 4.0 | 0.00 | 0.00 | 0.00 | 55 | 1017.7 |
| 20260505221138 | 62 | 315 | 3.0 | 3.0 | 0.00 | 0.00 | 0.00 | 54 | 1017.7 |
| 20260505220138 | 62 | 270 | 2.0 | 3.0 | 0.00 | 0.00 | 0.00 | 54 | 1017.8 |
| 20260505215137 | 62 | 338 | 2.0 | 2.0 | 0.00 | 0.00 | 0.00 | 56 | 1017.8 |
| 20260505214117 | 62 | 248 | 1.0 | 2.0 | 0.00 | 0.00 | 0.00 | 55 | 1017.9 |
| 20260505213117 | 61 | 270 | 5.0 | 7.0 | 0.00 | 0.00 | 0.00 | 55 | 1018.0 |
| 20260505212117 | 61 | 293 | 2.0 | 3.0 | 0.00 | 0.00 | 0.00 | 56 | 1018.0 |
| 20260505211117 | 61 | 293 | 1.0 | 2.0 | 0.00 | 0.00 | 0.00 | 56 | 1018.1 |
| 20260505210138 | 61 | 270 | 1.0 | 2.0 | 0.00 | 0.00 | 0.00 | 56 | 1018.1 |
| 20260505205117 | 62 | 315 | 3.0 | 5.0 | 0.00 | 0.00 | 0.00 | 55 | 1018.1 |
| 20260505204117 | 62 | 0.0 | 1.0 | 0.00 | 0.00 | 0.00 | 55 | 1018.3 | |
| 20260505203117 | 62 | 293 | 3.0 | 6.0 | 0.00 | 0.00 | 0.00 | 56 | 1018.3 |
| 20260505202117 | 61 | 293 | 1.0 | 2.0 | 0.00 | 0.00 | 0.00 | 56 | 1018.2 |
| 20260505201116 | 61 | 315 | 2.0 | 4.0 | 0.00 | 0.00 | 0.00 | 56 | 1018.4 |
| 20260505200117 | 61 | 270 | 1.0 | 3.0 | 0.00 | 0.00 | 0.00 | 55 | 1018.4 |
| 20260505195117 | 60 | 315 | 1.0 | 3.0 | 0.00 | 0.00 | 0.00 | 57 | 1018.5 |
| 20260505194116 | 59 | 180 | 1.0 | 1.0 | 0.00 | 0.00 | 0.00 | 58 | 1018.5 |
| 20260505193116 | 59 | 248 | 3.0 | 4.0 | 0.00 | 0.00 | 0.00 | 57 | 1018.6 |
| 20260505192117 | 59 | 225 | 1.0 | 3.0 | 0.00 | 0.00 | 0.00 | 57 | 1018.6 |
| 20260505191116 | 59 | 248 | 2.0 | 3.0 | 0.00 | 0.00 | 0.00 | 57 | 1018.6 |
| 20260505190116 | 58 | 158 | 1.0 | 3.0 | 0.00 | 0.00 | 0.00 | 58 | 1018.6 |
| 20260505185117 | 58 | 293 | 2.0 | 3.0 | 0.00 | 0.00 | 0.00 | 59 | 1018.6 |
| 20260505184117 | 58 | 248 | 2.0 | 3.0 | 0.00 | 0.00 | 0.00 | 59 | 1018.7 |
| 20260505183137 | 58 | 248 | 3.0 | 5.0 | 0.00 | 0.00 | 0.00 | 58 | 1018.6 |
| 20260505182116 | 58 | 248 | 1.0 | 2.0 | 0.00 | 0.00 | 0.00 | 58 | 1018.6 |
| 20260505181117 | 58 | 270 | 3.0 | 4.0 | 0.00 | 0.00 | 0.00 | 59 | 1018.6 |
| 20260505180238 | 57 | 225 | 1.0 | 2.0 | 0.00 | 0.00 | 0.00 | 59 | 1018.5 |
| 20260505175117 | 57 | 180 | 1.0 | 2.0 | 0.00 | 0.00 | 0.00 | 59 | 1018.5 |
| 20260505174117 | 57 | 293 | 1.0 | 2.0 | 0.00 | 0.00 | 0.00 | 60 | 1018.6 |
| 20260505173117 | 57 | 158 | 2.0 | 2.0 | 0.00 | 0.00 | 0.00 | 60 | 1018.5 |
| 20260505172117 | 57 | 135 | 1.0 | 1.0 | 0.00 | 0.00 | 0.00 | 61 | 1018.4 |
| 20260505171117 | 56 | 135 | 2.0 | 3.0 | 0.00 | 0.00 | 0.00 | 61 | 1018.3 |
| 20260505170116 | 56 | 225 | 2.0 | 3.0 | 0.00 | 0.00 | 0.00 | 62 | 1018.3 |
| 20260505165116 | 55 | 113 | 1.0 | 2.0 | 0.00 | 0.00 | 0.00 | 64 | 1018.2 |
| 20260505164117 | 55 | 225 | 1.0 | 2.0 | 0.00 | 0.00 | 0.00 | 64 | 1018.2 |
| 20260505163117 | 55 | 135 | 3.0 | 3.0 | 0.00 | 0.00 | 0.00 | 64 | 1018.1 |
| 20260505162116 | 55 | 180 | 1.0 | 3.0 | 0.00 | 0.00 | 0.00 | 64 | 1018.0 |
| 20260505161116 | 54 | 225 | 1.0 | 2.0 | 0.00 | 0.00 | 0.00 | 65 | 1018.0 |
| 20260505160117 | 54 | 180 | 1.0 | 1.0 | 0.00 | 0.00 | 0.00 | 65 | 1017.9 |
| 20260505153116 | 54 | 225 | 2.0 | 3.0 | 0.00 | 0.00 | 0.00 | 65 | 1017.9 |
| 20260505152116 | 54 | 248 | 1.0 | 2.0 | 0.00 | 0.00 | 0.00 | 65 | 1017.8 |
| 20260505151117 | 54 | 225 | 1.0 | 2.0 | 0.00 | 0.00 | 0.00 | 65 | 1017.8 |
| 20260505150116 | 54 | 225 | 2.0 | 3.0 | 0.00 | 0.00 | 0.00 | 66 | 1017.7 |
| 20260505140116 | 53 | 158 | 2.0 | 4.0 | 0.00 | 0.00 | 0.00 | 66 | 1017.1 |
| 20260505130116 | 53 | 180 | 1.0 | 2.0 | 0.00 | 0.00 | 0.00 | 65 | 1016.8 |
| 20260505124116 | 53 | 158 | 1.0 | 2.0 | 0.00 | 0.00 | 0.00 | 65 | 1016.9 |
| 20260505123116 | 53 | 0.0 | 1.0 | 0.00 | 0.00 | 0.00 | 65 | 1016.8 | |
| 20260505122116 | 53 | 0.0 | 1.0 | 0.00 | 0.00 | 0.00 | 66 | 1016.8 | |
| 20260505121116 | 53 | 0.0 | 1.0 | 0.00 | 0.00 | 0.00 | 66 | 1016.7 | |
| 20260505120136 | 53 | 180 | 1.0 | 2.0 | 0.00 | 0.00 | 0.00 | 66 | 1016.7 |
| 20260505115115 | 53 | 180 | 1.0 | 2.0 | 0.00 | 0.00 | 0.00 | 66 | 1016.6 |
| 20260505114116 | 53 | 180 | 1.0 | 2.0 | 0.00 | 0.00 | 0.00 | 66 | 1016.7 |
| 20260505113116 | 53 | 0.0 | 1.0 | 0.00 | 0.00 | 0.00 | 67 | 1016.6 | |
| 20260505112116 | 53 | 180 | 1.0 | 1.0 | 0.00 | 0.00 | 0.00 | 67 | 1016.6 |
| 20260505111116 | 53 | 315 | 1.0 | 2.0 | 0.00 | 0.00 | 0.00 | 68 | 1016.6 |
| 20260505110115 | 53 | 0.0 | 0.0 | 0.00 | 0.00 | 0.00 | 68 | 1016.5 | |
| 20260505102115 | 53 | 0.0 | 1.0 | 0.00 | 0.00 | 0.00 | 68 | 1016.2 | |
| 20260505101116 | 53 | 293 | 1.0 | 2.0 | 0.00 | 0.00 | 0.00 | 68 | 1016.2 |
| 20260505100115 | 53 | 293 | 2.0 | 3.0 | 0.00 | 0.00 | 0.00 | 68 | 1016.2 |
| 20260505095116 | 53 | 270 | 2.0 | 3.0 | 0.00 | 0.00 | 0.00 | 68 | 1016.1 |
| 20260505094115 | 53 | 270 | 1.0 | 2.0 | 0.00 | 0.00 | 0.00 | 68 | 1016.1 |
| 20260505093116 | 53 | 270 | 2.0 | 3.0 | 0.00 | 0.00 | 0.00 | 68 | 1016.0 |
| 20260505092116 | 53 | 270 | 2.0 | 3.0 | 0.00 | 0.00 | 0.00 | 67 | 1015.9 |
| 20260505091116 | 53 | 293 | 1.0 | 2.0 | 0.00 | 0.00 | 0.00 | 67 | 1015.7 |
| 20260505090136 | 53 | 293 | 1.0 | 2.0 | 0.00 | 0.00 | 0.00 | 67 | 1015.6 |
| 20260505085116 | 53 | 293 | 2.0 | 3.0 | 0.00 | 0.00 | 0.00 | 66 | 1015.6 |
| 20260505084115 | 53 | 315 | 2.0 | 4.0 | 0.00 | 0.00 | 0.00 | 66 | 1015.5 |
| 20260505083116 | 54 | 293 | 2.0 | 4.0 | 0.00 | 0.00 | 0.00 | 66 | 1015.6 |
| 20260505082115 | 54 | 315 | 3.0 | 4.0 | 0.00 | 0.00 | 0.00 | 65 | 1015.5 |
| 20260505081117 | 54 | 293 | 2.0 | 4.0 | 0.00 | 0.00 | 0.00 | 66 | 1015.4 |
| 20260505080116 | 54 | 293 | 3.0 | 4.0 | 0.00 | 0.00 | 0.00 | 66 | 1015.4 |
| 20260505075117 | 54 | 293 | 4.0 | 5.0 | 0.00 | 0.00 | 0.00 | 66 | 1015.4 |
| 20260505074117 | 54 | 293 | 2.0 | 4.0 | 0.00 | 0.00 | 0.00 | 65 | 1015.3 |
| 20260505073117 | 54 | 270 | 2.0 | 3.0 | 0.00 | 0.00 | 0.00 | 65 | 1015.0 |
| 20260505072118 | 55 | 293 | 3.0 | 4.0 | 0.00 | 0.00 | 0.00 | 64 | 1014.9 |
| 20260505071118 | 55 | 293 | 3.0 | 4.0 | 0.00 | 0.00 | 0.00 | 64 | 1014.8 |
| 20260505070137 | 56 | 293 | 3.0 | 4.0 | 0.00 | 0.00 | 0.00 | 63 | 1014.7 |
| 20260505065116 | 56 | 293 | 3.0 | 4.0 | 0.00 | 0.00 | 0.00 | 63 | 1014.5 |
| 20260505064116 | 57 | 293 | 2.0 | 4.0 | 0.00 | 0.00 | 0.00 | 62 | 1014.3 |
| 20260505063136 | 57 | 293 | 2.0 | 3.0 | 0.00 | 0.00 | 0.00 | 61 | 1014.3 |
| 20260505062156 | 58 | 315 | 2.0 | 3.0 | 0.00 | 0.00 | 0.00 | 61 | 1014.3 |
| 20260505061116 | 58 | 293 | 2.0 | 5.0 | 0.00 | 0.00 | 0.00 | 60 | 1014.1 |
| 20260505060136 | 59 | 315 | 2.0 | 5.0 | 0.00 | 0.00 | 0.00 | 59 | 1014.1 |
| 20260505055115 | 60 | 315 | 4.0 | 8.0 | 0.00 | 0.00 | 0.00 | 58 | 1014.0 |
| 20260505054116 | 61 | 315 | 3.0 | 4.0 | 0.00 | 0.00 | 0.00 | 57 | 1014.0 |
| 20260505053116 | 61 | 315 | 4.0 | 7.0 | 0.00 | 0.00 | 0.00 | 56 | 1014.1 |
| 20260505052115 | 62 | 315 | 5.0 | 8.0 | 0.00 | 0.00 | 0.00 | 55 | 1013.9 |
| 20260505051136 | 63 | 293 | 5.0 | 8.0 | 0.00 | 0.00 | 0.00 | 54 | 1013.9 |
| 20260505050136 | 63 | 315 | 4.0 | 7.0 | 0.00 | 0.00 | 0.00 | 53 | 1013.8 |